Theta_e
297 297 297 295 295 295 292 293 289 293 293 297 301 303 306 306 307 307 306 307 308 308 309 311 312 312 312 313 314 316 315 316 317 319 321 321 323 324 326 328 330 331 331 331
294 297 297 294 295 295 295 294 293 293 292 300 303 304 302 304 305 305 306 306 307 308 309 310 310 311 312 313 313 315 314 313 315 316 317 319 320 321 322 324 325 325 326 329
290 295 294 290 295 296 296 297 295 292 297 301 300 301 303 304 305 305 306 306 307 308 309 310 311 312 312 313 314 314 314 314 314 314 313 314 316 318 320 322 325 324 325 325
292 294 284 295 300 299 297 298 299 297 299 302 303 304 305 306 305 305 306 307 308 308 310 311 312 312 313 312 312 312 312 312 313 313 312 313 313 314 320 322 323 321 323 323
290 289 292 295 297 297 296 296 301 300 301 301 303 303 303 306 307 307 307 309 309 310 311 311 310 310 310 309 310 310 310 311 311 312 312 312 312 315 317 316 318 320 321 323
292 285 283 295 301 302 300 292 301 302 300 299 301 294 298 306 307 307 308 308 308 308 309 308 309 310 309 308 308 308 308 309 310 310 310 310 313 316 315 315 313 313 316 321
290 289 292 299 301 302 288 293 301 301 301 300 298 300 305 307 306 307 307 307 308 308 307 307 308 307 304 305 305 307 307 307 308 309 308 309 310 311 312 312 313 315 314 318
292 289 286 302 300 293 301 304 302 302 301 301 302 303 304 304 304 305 306 306 306 304 304 303 303 301 302 300 303 303 303 303 304 305 305 306 307 307 308 308 306 309 312 314
295 295 301 302 302 304 303 301 301 302 302 302 302 302 302 303 303 302 302 303 303 300 300 301 302 301 298 299 300 299 299 299 300 300 300 301 301 302 300 302 303 303 305 308
295 299 300 301 302 302 302 303 302 303 304 303 301 302 301 302 302 302 302 301 300 299 299 299 300 299 299 299 299 298 296 297 297 297 297 297 299 298 298 299 299 300 302 304
294 298 299 301 301 304 302 303 302 303 302 302 302 300 301 300 301 302 301 300 299 297 298 298 299 298 298 298 298 296 296 296 295 295 295 296 297 298 297 300 300 299 301 304
292 298 300 301 302 302 302 302 302 301 301 301 301 300 301 300 301 301 299 298 297 298 298 297 297 297 297 298 297 295 294 293 294 294 294 294 295 295 295 294 295 294 294 295
297 302 300 301 303 303 302 301 302 301 300 300 302 302 301 300 300 298 297 296 296 296 296 297 296 296 296 296 295 293 292 292 292 292 292 293 293 294 293 296 294 293 293 293
302 302 299 302 299 302 302 302 302 301 302 302 303 303 302 300 300 296 296 296 297 297 296 296 295 294 295 294 293 291 291 291 291 291 291 292 292 293 293 293 293 296 294 294
301 303 302 303 302 301 303 302 300 301 302 302 303 302 301 300 299 295 296 296 296 295 295 294 293 293 293 292 291 290 290 289 290 290 290 290 291 291 292 292 293 294 296 295
300 302 301 299 299 299 300 300 300 301 302 302 302 301 301 300 299 296 296 295 293 292 293 294 292 292 292 292 291 290 290 289 288 288 288 288 290 290 291 291 292 293 294 295
299 298 299 298 299 300 302 303 302 302 302 302 301 302 300 298 298 294 294 294 295 294 294 292 290 292 292 291 290 289 289 289 287 286 288 288 288 288 289 290 290 292 293 294
303 302 302 302 301 302 302 302 303 303 302 302 302 300 298 297 293 292 293 294 294 294 293 292 292 292 290 289 289 288 288 288 288 288 288 288 289 289 288 288 289 290 292 294
302 302 302 302 303 303 303 303 303 304 303 302 299 297 297 295 293 293 293 293 292 290 290 292 292 290 289 289 289 288 288 288 288 288 289 288 288 290 289 288 288 289 289 290
302 302 303 304 305 305 304 305 305 303 302 300 298 295 293 292 293 293 293 292 293 292 293 292 292 289 288 289 288 289 289 288 288 288 288 288 288 289 289 288 288 289 290 291
301 302 303 303 303 305 306 306 305 303 302 299 295 289 287 293 294 293 293 291 293 294 293 293 291 290 289 288 289 289 289 288 288 287 287 288 288 288 289 289 289 289 289 290
303 303 303 303 304 305 305 306 306 305 303 300 296 292 291 292 293 293 294 292 295 287 292 294 293 288 289 286 291 290 289 288 288 287 287 287 287 287 288 288 288 289 290 290
304 304 304 304 305 306 306 306 306 305 302 302 290 288 289 292 295 291 288 293 295 291 293 294 288 286 286 293 293 292 290 289 288 287 286 287 287 287 287 287 288 288 289 289
305 305 305 307 307 305 305 306 306 306 304 303 301 289 292 294 294 296 296 291 288 289 291 291 289 286 286 293 292 291 291 289 288 287 286 286 286 286 286 287 286 287 288 288
305 306 306 305 305 304 308 308 306 306 305 303 302 302 301 300 296 296 296 295 289 291 293 289 287 288 294 293 292 291 290 289 288 286 286 286 285 285 286 286 286 286 287 288
306 306 306 307 307 307 305 305 303 304 305 303 302 301 301 301 300 298 296 292 294 291 295 295 294 295 295 294 293 291 290 288 287 286 286 286 286 285 285 285 285 286 286 286
306 296 306 306 307 307 306 306 305 305 303 302 300 300 300 300 299 297 292 296 296 296 296 296 295 293 295 294 293 291 290 288 287 286 286 285 285 285 285 285 286 286 286 286
Wind_Speed
14 14 14 16 13 14 16 17 17 18 14 13 12 17 8 7 8 6 7 7 8 9 10 10 11 11 12 12 13 12 13 12 13 11 11 11 11 10 10 11 10 9 10 5
13 15 18 19 15 19 20 19 20 18 19 16 9 10 7 7 4 6 8 9 11 11 13 13 13 13 14 14 14 13 13 14 13 13 14 13 12 11 11 10 11 11 10 11
12 12 11 14 17 19 18 17 15 16 12 3 3 5 5 5 8 9 11 11 13 14 14 14 15 15 15 16 16 16 16 15 14 14 15 14 14 14 13 11 11 11 12 13
10 10 11 9 2 4 8 11 10 6 5 6 6 0 5 8 14 12 9 12 14 15 15 15 16 17 17 17 17 18 17 18 17 16 16 15 14 13 12 11 12 12 13 12
4 10 14 19 3 5 3 4 8 10 4 2 3 7 13 11 10 9 14 14 15 15 16 16 18 18 19 19 19 19 19 18 18 18 17 17 16 13 11 12 13 14 14 14
7 4 6 2 6 2 1 6 4 7 6 7 7 10 8 14 12 13 14 14 16 17 17 17 17 18 17 17 17 19 19 20 19 19 18 18 18 14 12 13 14 15 16 17
12 9 8 3 7 3 7 4 3 5 7 10 11 12 14 15 16 16 16 17 16 16 15 16 17 16 17 18 19 19 18 18 18 17 19 19 17 14 14 15 16 15 17 16
16 14 13 5 6 6 7 2 5 8 9 10 13 14 15 15 16 17 17 15 14 14 15 14 15 14 16 17 17 16 17 19 18 18 16 16 18 16 17 14 13 15 16 15
5 3 4 4 5 5 5 6 8 8 11 11 13 15 15 14 14 12 11 12 13 13 14 14 12 10 15 16 15 17 17 18 16 15 15 15 16 15 12 14 13 16 15 15
3 9 7 4 0 4 3 7 8 7 10 12 13 13 12 12 12 12 11 12 12 13 14 14 13 15 15 16 15 15 17 18 16 15 17 14 12 11 10 11 11 12 13 14
4 9 9 10 5 7 4 4 4 7 9 9 10 11 13 13 12 11 10 11 12 12 12 15 15 15 14 15 14 15 15 15 15 13 14 14 13 11 11 13 12 11 10 13
3 6 2 8 3 0 4 5 5 6 6 7 8 10 11 12 12 12 13 12 12 13 14 15 15 15 14 13 13 14 14 12 11 11 11 11 12 12 14 17 18 18 19 15
3 5 4 1 3 2 2 3 5 6 4 6 8 9 12 13 12 13 12 12 12 11 14 13 13 13 14 13 14 14 14 14 11 13 11 12 11 11 12 12 17 19 19 19
6 1 0 3 1 3 1 1 3 4 4 6 7 9 12 13 12 11 13 11 10 13 13 14 15 16 14 15 15 15 14 20 11 11 11 10 11 11 10 10 12 10 12 17
6 2 3 1 2 3 3 2 4 6 6 8 9 10 12 13 13 11 12 13 13 14 13 14 15 16 15 15 14 13 12 10 11 10 9 11 10 10 10 11 12 11 10 10
6 6 5 2 5 5 4 3 6 7 7 8 10 10 12 12 11 10 11 12 12 10 14 14 13 14 15 15 14 11 10 16 14 10 9 9 9 9 9 10 11 11 10 10
5 8 7 5 6 4 6 7 7 7 7 9 8 10 11 10 10 11 11 12 11 11 14 12 14 14 15 14 14 10 9 9 12 9 8 8 8 9 9 9 10 11 11 10
9 9 7 6 5 7 7 7 7 7 7 7 9 10 10 10 10 11 11 13 12 13 13 13 13 16 14 14 13 10 9 9 9 9 8 8 8 8 8 9 9 10 11 11
9 10 8 7 8 9 9 8 8 7 7 8 9 10 10 9 10 10 11 12 11 12 13 14 20 17 14 15 16 9 9 10 10 9 8 9 8 7 7 7 9 9 9 10
10 8 10 11 11 10 9 9 8 7 6 8 9 10 10 10 10 10 10 11 10 9 14 14 13 12 14 15 18 9 10 10 10 9 9 9 8 8 8 8 8 8 8 9
9 9 9 9 8 8 7 7 8 8 7 8 9 7 7 9 10 11 11 9 13 15 16 13 11 11 10 13 11 9 10 10 10 10 10 10 10 9 9 8 7 7 7 8
8 8 8 6 6 6 6 6 7 7 8 6 7 5 6 9 10 10 10 9 9 10 12 8 11 17 14 16 9 10 10 11 10 10 10 10 10 10 10 10 9 7 7 7
7 6 5 3 4 3 4 5 5 7 8 7 5 3 3 5 5 6 8 10 8 12 9 9 13 17 18 10 11 11 12 12 11 11 11 11 11 11 11 10 10 9 7 6
6 5 4 1 2 2 4 4 4 7 7 6 6 6 2 5 6 5 6 6 9 11 9 10 12 16 13 11 12 12 12 12 12 12 12 15 11 11 11 10 10 9 7 7
4 4 3 4 3 2 1 1 2 5 7 3 6 5 4 3 4 5 6 10 9 10 9 9 8 12 11 11 12 13 12 12 12 13 13 12 12 12 11 11 10 10 8 7
5 4 2 2 3 4 3 4 4 6 7 7 6 5 5 5 6 6 8 9 10 10 7 9 9 11 11 13 13 14 13 14 14 14 15 13 13 12 12 12 11 10 9 8
5 3 6 4 3 2 6 4 5 6 8 8 7 6 6 6 5 6 6 8 9 11 11 10 10 11 11 12 14 14 13 13 16 15 14 14 13 13 13 13 11 10 9 8
Wind_Direction
268 283 294 294 273 239 220 235 262 277 258 197 230 259 243 8 359 314 309 320 329 325 324 324 328 325 317 317 317 310 306 307 308 301 301 302 305 308 301 310 311 311 314 306
275 276 265 262 268 264 260 247 253 260 264 281 273 290 316 296 242 285 304 318 320 317 318 318 317 316 314 309 304 304 301 301 298 299 298 293 291 290 291 295 297 306 311 295
266 293 289 274 264 248 250 244 252 255 269 39 122 253 300 309 306 297 299 320 321 318 313 314 310 306 301 306 305 299 297 292 290 291 292 292 292 290 289 283 292 284 284 288
271 273 272 261 59 314 289 293 298 261 295 40 55 201 292 310 287 297 314 309 307 303 303 303 306 305 302 299 300 296 291 290 287 284 285 286 287 289 298 296 286 276 280 270
213 241 261 280 173 264 322 31 335 71 102 269 350 324 270 9 14 324 312 311 300 304 309 313 309 306 298 295 292 289 288 288 288 289 280 274 276 282 286 289 290 291 279 267
203 228 244 304 91 39 240 252 58 10 12 10 311 276 288 359 331 320 314 312 313 309 306 304 308 325 324 304 298 295 300 306 310 307 301 313 317 297 282 281 280 278 274 277
231 223 251 106 133 288 253 68 30 355 333 316 311 320 324 324 318 318 315 308 324 333 330 327 326 322 315 313 305 305 306 298 295 295 301 298 295 290 298 287 274 269 277 277
230 234 243 171 153 248 61 13 329 328 321 320 321 313 316 319 318 320 343 338 329 325 318 321 314 310 309 305 311 317 314 307 300 301 303 299 296 290 280 274 282 284 274 266
241 65 109 137 74 43 4 317 304 331 343 314 319 320 320 324 336 311 306 327 328 313 304 306 311 313 307 301 308 304 299 295 293 293 295 281 285 281 270 275 280 279 273 275
159 176 175 151 167 260 286 13 356 314 315 330 319 320 321 311 329 330 338 323 311 308 311 313 317 307 298 302 298 293 290 290 291 288 292 285 282 265 268 270 258 264 262 266
221 230 185 218 81 41 338 285 296 339 332 326 338 333 333 328 326 330 331 327 328 316 315 313 311 309 310 306 301 293 290 287 287 283 282 281 277 271 266 268 265 253 267 273
305 351 338 92 70 350 300 343 352 338 337 349 345 342 340 336 338 342 337 332 317 315 322 314 313 312 310 311 308 304 296 292 288 286 282 282 281 276 255 248 256 264 270 270
300 123 42 132 206 113 347 344 13 315 353 339 343 341 345 341 344 333 335 320 317 328 316 312 312 312 316 316 313 304 298 295 290 284 282 281 274 272 274 263 237 244 251 251
104 122 275 24 253 348 62 2 202 300 303 325 336 339 358 332 341 342 323 325 326 324 320 321 320 318 321 323 308 301 296 294 287 285 280 278 278 278 274 271 275 261 241 240
165 159 203 296 233 95 109 310 314 294 327 336 344 3 343 338 346 335 331 342 332 324 325 325 322 321 322 311 307 303 302 297 291 287 284 280 274 269 269 270 271 267 277 231
184 201 133 121 64 51 21 326 316 334 343 343 354 359 330 344 344 346 343 341 331 332 330 329 327 322 315 318 314 305 295 291 287 287 284 281 277 273 267 263 264 263 259 250
190 161 127 104 57 15 16 7 353 356 350 9 352 340 349 351 351 345 343 338 333 331 336 334 324 323 327 326 321 314 306 299 291 284 282 282 280 275 272 264 262 263 260 256
94 81 80 62 36 29 26 23 25 26 27 5 355 356 351 359 352 342 340 334 343 341 341 335 330 334 329 325 324 317 309 307 305 299 296 292 290 281 270 266 263 263 267 260
112 101 93 74 60 57 48 40 41 41 25 17 7 3 359 7 345 342 346 340 351 341 341 332 333 337 331 322 325 315 308 313 316 314 308 303 298 290 288 274 263 257 255 255
108 113 106 94 75 60 57 51 46 35 29 22 23 11 3 350 349 348 352 351 359 344 334 331 336 335 329 324 325 319 321 319 317 316 312 308 304 303 301 288 278 279 274 254
128 125 120 93 87 76 62 49 43 31 29 38 40 15 329 341 350 357 358 352 348 351 338 331 350 342 329 327 323 329 330 331 330 326 322 319 316 312 302 294 294 286 278 289
130 136 122 134 110 85 58 52 37 32 23 44 40 16 333 356 352 0 352 356 332 358 335 349 352 339 331 323 333 333 333 333 330 327 326 324 320 317 316 311 304 294 290 279
122 134 131 128 81 105 101 36 31 18 14 24 151 228 2 323 335 350 336 337 346 347 336 350 341 336 331 339 339 338 338 337 335 332 327 324 319 317 312 311 310 301 297 285
140 156 122 152 253 272 36 45 24 8 14 20 95 180 69 359 347 350 333 352 8 342 350 348 342 336 331 348 342 341 340 338 338 334 328 327 322 319 316 316 313 307 297 288
189 155 180 256 326 292 243 173 146 21 1 55 47 20 82 94 33 347 354 8 357 342 345 350 324 338 353 353 347 344 342 340 338 335 332 329 326 325 323 321 317 312 305 296
200 212 126 357 351 334 339 22 34 52 354 5 58 31 29 32 35 20 9 7 354 333 360 360 355 0 360 356 352 349 345 341 342 340 336 334 332 331 330 329 324 318 310 300
200 290 244 237 218 81 34 29 0 41 32 352 24 28 25 23 61 27 27 5 5 355 9 14 4 9 4 4 357 354 349 345 344 341 339 339 339 337 337 336 334 332 329 324